1506200400.27,44086,14.13,73832.8,-0.27,-1.13,-1.13,0,*6B
1506200401.54,44087,14.13,73836.0,-0.27,-1.05,-1.05,0,*6A
1506200402.81,44088,14.13,73836.5,-0.27,-1.05,-1.05,0,*65
1506200404.07,44089,14.13,73836.3,-0.27,-1.01,-1.01,0,*64
1506200405.33,44090,14.19,73836.8,-0.27,-1.01,-1.01,0,*6C
1506200406.6,44091,14.19,73838.3,-0.27,-1.01,-1.01,0,*6D
1506200407.86,44092,14.19,73836.0,-0.27,-1.01,-1.01,0,*6E
1506200409.12,44093,14.13,73836.0,-0.27,-1.01,-1.05,0,*6B
1506200410.39,44094,14.13,73838.0,-0.27,-1.01,-1.05,0,*6C
1506200411.66,44095,14.19,73838.5,-0.27,-1.05,-1.05,0,*69
1506200412.89,44096,14.13,73834.5,-0.25,-1.09,-1.01,0,*60
1506200414.13,44097,14.13,73832.5,-0.29,-1.13,-1.13,0,*65
1506200415.4,44098,14.13,73838.5,-0.27,-1.05,-1.05,0,*64
1506200416.64,44099,14.13,73838.5,-0.29,-1.13,-1.05,0,*6C
1506200417.89,44100,14.13,73834.5,-0.29,-1.05,-1.05,0,*6A
1506200419.14,44101,14.13,73836.3,-0.29,-1.01,-1.05,0,*6F
1506200420.4,44102,14.19,73840.3,-0.27,-1.05,-1.05,0,*66
1506200421.67,44103,14.19,73836.3,-0.27,-1.05,-1.05,0,*67
1506200422.92,44104,14.13,73836.3,-0.29,-1.05,-1.05,0,*6E
1506200424.19,44105,14.13,73836.8,-0.27,-1.05,-1.05,0,*61
1506200425.45,44106,14.13,73834.8,-0.27,-1.01,-1.05,0,*66
1506200426.72,44107,14.13,73838.0,-0.27,-1.01,-1.05,0,*67
1506200427.98,44108,14.19,73836.5,-0.27,-1.01,-1.05,0,*68
1506200429.25,44109,14.19,73838.5,-0.27,-1.05,-1.05,0,*6D
1506200430.5,44110,14.13,73838.5,-0.29,-1.05,-1.05,0,*6B
1506200431.77,44111,14.19,73836.3,-0.27,-1.05,-1.05,0,*64
1506200433.02,44112,14.13,73836.3,-0.29,-1.05,-1.05,0,*69
1506200434.26,44113,14.19,73836.5,-0.29,-1.05,-1.05,0,*68
1506200435.53,44114,14.13,73836.8,-0.27,-1.01,-1.05,0,*65
1506200436.79,44115,14.13,73836.5,-0.27,-1.01,-1.01,0,*60
1506200438.06,44116,14.19,73838.5,-0.27,-1.05,-1.05,0,*63
1506200439.33,44117,14.19,73836.0,-0.27,-1.05,-1.05,0,*62
1506200440.57,44118,14.19,73840.0,-0.29,-1.05,-1.05,0,*63
1506200441.82,44119,14.13,73834.3,-0.29,-1.05,-1.05,0,*62
1506200443.08,44120,14.13,73834.5,-0.27,-1.01,-1.01,0,*66
1506200444.35,44121,14.13,73834.3,-0.27,-1.01,-1.01,0,*67
1506200445.58,44122,14.13,73834.8,-0.29,-0.97,-1.01,0,*54
1506200446.82,44123,14.13,73834.3,-0.29,-1.01,-1.01,0,*6B
1506200448.07,44124,14.13,73836.3,-0.29,-1.01,-1.01,0,*6C
1506200449.32,44125,14.19,73838.3,-0.27,-1.01,-0.97,0,*5D
1506200450.56,44126,14.13,73832.8,-0.29,-1.01,-0.97,0,*50
1506200451.8,44127,14.13,73834.5,-0.29,-1.01,-1.01,0,*6F
1506200453.04,44128,14.13,73836.3,-0.29,-0.97,-1.01,0,*5E
1506200454.28,44129,14.13,73838.5,-0.29,-1.01,-1.01,0,*61
1506200455.54,44130,14.13,73834.5,-0.27,-1.05,-1.01,0,*63
1506200456.78,44131,14.13,73832.8,-0.29,-1.01,-1.01,0,*68
1506200458.03,44132,14.13,73834.5,-0.29,-1.01,-1.01,0,*6B
1506200459.29,44133,14.19,73836.3,-0.27,-1.01,-1.05,0,*60
1506200460.54,44134,14.13,73834.3,-0.29,-1.01,-1.05,0,*69
1506200461.78,44135,14.13,73834.0,-0.29,-1.01,-1.01,0,*6C
1506200463.04,44136,14.13,73832.8,-0.27,-1.01,-1.01,0,*61
1506200464.28,44137,14.19,73838.3,-0.29,-1.05,-1.01,0,*6A
1506200465.52,44138,14.13,73834.0,-0.29,-0.97,-1.01,0,*5F
1506200466.78,44139,14.13,73838.8,-0.27,-1.01,-1.01,0,*6E
1506200468.04,44140,14.19,73838.3,-0.27,-0.97,-1.01,0,*5E
1506200469.3,44141,14.19,73836.0,-0.27,-1.01,-1.01,0,*61
1506200470.54,44142,14.19,73838.0,-0.29,-1.01,-1.01,0,*6C
1506200471.81,44143,14.19,73838.0,-0.27,-1.01,-1.01,0,*63
1506200473.06,44144,14.13,73834.8,-0.27,-0.97,-1.01,0,*5A
1506200474.3,44145,14.13,73836.3,-0.29,-0.97,-0.97,0,*6B
1506200475.53,44146,14.13,73834.8,-0.29,-0.97,-0.97,0,*68
1506200476.78,44147,14.19,73836.8,-0.27,-1.01,-0.97,0,*59
1506200478.04,44148,14.19,73838.8,-0.27,-1.01,-1.01,0,*68
1506200479.3,44149,14.19,73838.5,-0.27,-1.01,-0.97,0,*57
1506200480.56,44150,14.19,73836.0,-0.27,-1.01,-1.01,0,*61
1506200481.8,44151,14.13,73834.5,-0.29,-1.01,-1.01,0,*6E
1506200483.06,44152,14.19,73836.3,-0.27,-1.01,-1.01,0,*63
1506200484.33,44153,14.19,73832.5,-0.27,-1.01,-1.01,0,*62
1506200485.59,44154,14.13,73838.3,-0.27,-1.01,-1.01,0,*65
1506200486.85,44155,14.13,73834.8,-0.27,-1.01,-1.01,0,*64
1506200488.1,44156,14.13,73834.0,-0.27,-0.97,-0.97,0,*67
1506200489.34,44157,14.13,73834.5,-0.29,-0.97,-1.01,0,*56
1506200490.58,44158,14.13,73836.3,-0.29,-0.97,-1.01,0,*59
1506200491.81,44159,14.19,73838.3,-0.29,-1.01,-0.97,0,*58
1506200493.05,44160,14.13,73832.5,-0.29,-0.97,-0.97,0,*6C
1506200494.31,44161,14.19,73832.5,-0.27,-1.01,-1.01,0,*63
1506200495.56,44162,14.19,73836.5,-0.27,-0.97,-0.97,0,*60
1506200496.81,44163,14.19,73838.3,-0.27,-0.97,-0.97,0,*61
1506200498.04,44164,14.13,73832.8,-0.29,-0.97,-0.97,0,*68
1506200499.29,44165,14.13,73836.3,-0.27,-0.97,-0.97,0,*67
1506200500.54,44166,14.13,73836.8,-0.29,-1.01,-1.01,0,*6A
1506200501.79,44167,14.13,73832.8,-0.27,-0.97,-0.97,0,*65
1506200503.04,44168,14.13,73834.5,-0.27,-0.97,-0.97,0,*6A
1506200504.29,44169,14.19,73836.0,-0.27,-0.97,-0.97,0,*6B
1506200505.54,44170,14.13,73832.5,-0.27,-0.97,-0.97,0,*63
1506200506.79,44171,14.13,73834.3,-0.27,-0.89,-0.85,0,*6E
1506200508.04,44172,14.13,73832.5,-0.27,-0.89,-0.89,0,*61
1506200509.29,44173,14.13,73836.0,-0.27,-0.89,-0.89,0,*60
1506200510.55,44174,14.13,73832.8,-0.27,-0.89,-0.97,0,*68
1506200511.8,44175,14.19,73836.0,-0.27,-0.89,-0.89,0,*66
1506200513.05,44176,14.19,73836.0,-0.27,-0.97,-0.89,0,*6A
1506200514.3,44177,14.19,73838.3,-0.27,-0.89,-0.89,0,*64
1506200515.55,44178,14.19,73838.3,-0.27,-0.85,-0.89,0,*67
1506200516.78,44179,14.13,73832.5,-0.29,-0.85,-0.85,0,*64
1506200518.01,44180,14.13,73836.0,-0.29,-0.85,-0.89,0,*6E
1506200519.26,44181,14.19,73838.8,-0.27,-0.97,-0.89,0,*62
1506200520.51,44182,14.19,73836.0,-0.27,-0.97,-0.89,0,*61
1506200521.76,44183,14.13,73834.0,-0.27,-0.97,-0.89,0,*60
1506200523.01,44184,14.19,73838.5,-0.27,-0.89,-0.89,0,*68
1506200524.26,44185,14.19,73838.5,-0.27,-0.89,-0.89,0,*69
1506200525.52,44186,14.19,73840.0,-0.27,-0.97,-0.97,0,*6A
1506200526.77,44187,14.19,73836.8,-0.27,-0.97,-0.97,0,*6B
1506200528.02,44188,14.13,73838.5,-0.27,-0.97,-0.89,0,*6B
1506200529.28,44189,14.19,73842.3,-0.27,-0.97,-1.01,0,*5B
1506200530.53,44190,14.13,73838.3,-0.27,-0.97,-0.97,0,*6D
1506200531.78,44191,14.19,73840.5,-0.27,-0.97,-0.97,0,*6C
1506200533.01,44192,14.19,73838.3,-0.29,-0.97,-0.97,0,*61
1506200534.27,44193,14.19,73838.0,-0.27,-1.01,-0.89,0,*5F
1506200535.52,44194,14.19,73838.0,-0.27,-0.97,-0.89,0,*66
1506200536.75,44195,14.19,73836.8,-0.25,-0.85,-0.85,0,*6A
1506200537.96,44196,14.13,73832.3,-0.25,-0.81,-0.85,0,*6D
1506200539.19,44197,14.13,73834.3,-0.25,-0.85,-0.85,0,*68
1506200540.42,44198,14.13,73836.0,-0.25,-0.85,-0.85,0,*67
1506200541.65,44199,14.19,73838.0,-0.25,-0.85,-0.85,0,*66
1506200542.9,44200,14.13,73832.8,-0.27,-0.89,-0.97,0,*68
1506200544.15,44201,14.13,73834.8,-0.27,-0.97,-0.89,0,*69
1506200545.38,44202,14.13,73834.8,-0.25,-0.85,-0.93,0,*60
1506200546.6,44203,14.13,73834.0,-0.25,-0.93,-0.85,0,*61
1506200547.83,44204,14.13,73832.5,-0.25,-0.93,-0.85,0,*66
1506200549.06,44205,14.13,73832.0,-0.25,-0.85,-0.85,0,*60
1506200550.28,44206,14.19,73838.0,-0.25,-0.85,-0.85,0,*63
1506200551.51,44207,14.19,73836.8,-0.25,-0.85,-0.93,0,*65
1506200552.74,44208,14.19,73836.8,-0.25,-0.93,-0.93,0,*6D
1506200553.96,44209,14.13,73834.3,-0.25,-0.93,-0.85,0,*6B
1506200555.19,44210,14.19,73836.5,-0.25,-0.85,-0.93,0,*63
1506200556.42,44211,14.19,73836.5,-0.25,-0.85,-0.85,0,*65
1506200557.63,44212,14.13,73838.0,-0.25,-0.93,-0.81,0,*65
1506200558.85,44213,14.13,73836.8,-0.25,-0.85,-0.85,0,*67
1506200560.06,44214,14.19,73838.0,-0.25,-0.85,-0.81,0,*64
1506200561.27,44215,14.13,73838.5,-0.25,-0.81,-0.85,0,*65
1506200562.5,44216,14.19,73836.8,-0.25,-0.85,-0.85,0,*62
1506200563.7,44217,14.19,73838.5,-0.23,-0.81,-0.81,0,*65
1506200564.93,44218,14.13,73834.0,-0.25,-0.85,-0.85,0,*6C
1506200566.16,44219,14.13,73834.3,-0.25,-0.85,-0.85,0,*6D
1506200567.39,44220,14.13,73832.3,-0.25,-0.85,-0.85,0,*67
1506200568.62,44221,14.13,73836.0,-0.23,-0.85,-0.81,0,*64
1506200569.85,44222,14.13,73834.0,-0.23,-0.85,-0.81,0,*67
1506200571.1,44223,14.19,73836.5,-0.23,-0.85,-0.85,0,*62
1506200572.34,44224,14.19,73836.0,-0.23,-0.85,-0.85,0,*65
1506200573.59,44225,14.13,73834.5,-0.23,-0.93,-0.93,0,*64
1506200574.8,44226,14.13,73832.0,-0.25,-0.81,-0.85,0,*65
1506200576.03,44227,14.19,73838.8,-0.25,-0.85,-0.85,0,*60
1506200577.25,44228,14.19,73838.8,-0.25,-0.85,-0.85,0,*6F
1506200578.48,44229,14.13,73834.8,-0.25,-0.93,-0.85,0,*69
1506200579.71,44230,14.13,73836.0,-0.25,-0.85,-0.85,0,*66
1506200580.94,44231,14.13,73836.8,-0.25,-0.85,-0.85,0,*67
1506200582.18,44232,14.19,73838.5,-0.23,-0.85,-0.85,0,*62
1506200583.41,44233,14.19,73838.8,-0.25,-0.85,-0.85,0,*65
1506200584.64,44234,14.19,73838.5,-0.25,-0.85,-0.85,0,*62
1506200585.87,44235,14.13,73834.8,-0.23,-0.85,-0.81,0,*61
1506200587.12,44236,14.13,73832.5,-0.23,-0.85,-0.85,0,*66
1506200588.32,44237,14.13,73836.5,-0.25,-0.93,-0.81,0,*62
1506200589.57,44238,14.13,73836.5,-0.23,-0.93,-0.85,0,*6F
1506200590.8,44239,14.13,73832.3,-0.25,-0.97,-0.85,0,*6C
1506200592.03,44240,14.13,73834.5,-0.25,-0.85,-0.85,0,*61
1506200593.28,44241,14.13,73838.0,-0.23,-0.85,-0.85,0,*66
1506200594.53,44242,14.13,73836.0,-0.23,-0.85,-0.85,0,*65
1506200595.76,44243,14.13,73836.5,-0.23,-0.85,-0.81,0,*60
1506200597.0,44244,14.13,73832.8,-0.23,-0.93,-0.85,0,*64
1506200598.21,44245,14.13,73832.8,-0.25,-0.85,-0.81,0,*60
1506200599.43,44246,14.13,73834.3,-0.25,-0.93,-0.85,0,*60
1506200600.68,44247,14.13,73836.8,-0.23,-0.85,-0.93,0,*67
1506200601.93,44248,14.13,73832.0,-0.23,-0.85,-0.93,0,*68
1506200603.18,44249,14.19,73836.3,-0.23,-0.93,-0.93,0,*6E
1506200604.42,44250,14.13,73828.5,-0.23,-0.93,-0.93,0,*66
1506200605.64,44251,14.13,73832.5,-0.25,-0.93,-0.93,0,*61
1506200606.87,44252,14.19,73834.0,-0.25,-0.93,-0.93,0,*62
1506200608.12,44253,14.13,73832.8,-0.23,-0.85,-0.93,0,*62
1506200609.34,44254,14.13,73834.5,-0.25,-0.93,-0.93,0,*64
1506200610.59,44255,14.19,73834.3,-0.23,-0.93,-0.93,0,*63
1506200611.81,44256,14.19,73834.8,-0.25,-0.93,-0.93,0,*66
1506200613.06,44257,14.13,73834.0,-0.23,-0.97,-0.97,0,*61
1506200614.31,44258,14.13,73834.0,-0.23,-0.93,-0.97,0,*6A
1506200615.56,44259,14.13,73834.5,-0.23,-0.93,-0.97,0,*6B
1506200616.79,44260,14.13,73832.3,-0.25,-0.97,-0.93,0,*67
1506200618.03,44261,14.19,73836.3,-0.23,-0.93,-0.97,0,*60
1506200619.28,44262,14.13,73836.0,-0.23,-0.97,-0.97,0,*67
1506200620.53,44263,14.19,73838.5,-0.23,-0.93,-0.97,0,*62
1506200621.78,44264,14.19,73836.3,-0.23,-0.97,-0.97,0,*61
1506200623.03,44265,14.13,73836.8,-0.23,-0.97,-0.97,0,*60
1506200624.26,44266,14.13,73834.0,-0.25,-0.93,-0.93,0,*65
1506200625.5,44267,14.13,73834.3,-0.23,-0.93,-0.93,0,*62
1506200626.75,44268,14.13,73834.5,-0.23,-0.93,-0.97,0,*69
1506200628.0,44269,14.19,73838.0,-0.23,-0.97,-0.97,0,*6C
1506200629.23,44270,14.19,73838.3,-0.25,-0.97,-0.97,0,*62
1506200630.49,44271,14.13,73836.5,-0.23,-0.97,-1.01,0,*5B
1506200631.73,44272,14.19,73838.8,-0.25,-1.09,-1.09,0,*60
1506200632.96,44273,14.13,73834.8,-0.23,-1.09,-1.21,0,*6D
1506200634.22,44274,14.13,73834.3,-0.23,-1.13,-1.13,0,*60
1506200635.46,44275,14.19,73838.5,-0.25,-1.13,-1.13,0,*67
1506200636.7,44276,14.13,73834.3,-0.25,-1.09,-1.09,0,*64
1506200637.91,44277,14.13,73832.0,-0.23,-1.21,-1.21,0,*63
1506200639.15,44278,14.19,73836.8,-0.25,-1.13,-1.13,0,*6A
1506200640.39,44279,14.13,73832.0,-0.25,-1.13,-1.09,0,*60
1506200641.63,44280,14.19,73836.0,-0.25,-1.09,-1.13,0,*66
1506200642.87,44281,14.19,73834.3,-0.25,-1.09,-1.01,0,*64
1506200644.11,44282,14.19,73836.5,-0.25,-1.01,-1.09,0,*67
1506200645.37,44283,14.13,73836.3,-0.27,-1.05,-1.05,0,*6C
1506200646.64,44284,14.13,73832.0,-0.27,-1.05,-1.05,0,*6B
1506200647.91,44285,14.13,73834.5,-0.27,-1.05,-1.05,0,*6A
1506200649.17,44286,14.19,73836.5,-0.27,-1.05,-1.13,0,*6E
1506200650.44,44287,14.19,73836.3,-0.27,-1.13,-1.05,0,*6F
1506200651.68,44288,14.19,73836.0,-0.25,-1.01,-1.09,0,*6D
1506200652.92,44289,14.19,73838.8,-0.25,-1.09,-1.09,0,*64
1506200654.16,44290,14.19,73836.5,-0.29,-1.05,-1.05,0,*60
1506200655.42,44291,14.19,73836.0,-0.27,-1.13,-1.13,0,*6F
1506200656.68,44292,14.19,73836.3,-0.27,-1.05,-1.13,0,*6B
1506200657.95,44293,14.19,73834.3,-0.27,-1.05,-1.05,0,*6D
1506200659.22,44294,14.13,73836.5,-0.27,-1.05,-1.05,0,*6A
1506200660.49,44295,14.13,73832.3,-0.27,-1.05,-1.05,0,*6B
1506200661.76,44296,14.13,73834.3,-0.27,-1.05,-1.05,0,*68
1506200663.0,44297,14.19,73836.5,-0.29,-1.05,-1.05,0,*67
1506200664.25,44298,14.13,73832.3,-0.29,-1.05,-1.05,0,*68
1506200665.51,44299,14.19,73838.0,-0.27,-1.05,-1.13,0,*60
1506200666.76,44300,14.13,73834.3,-0.29,-1.05,-1.05,0,*68
1506200668.03,44301,14.19,73838.0,-0.27,-1.05,-1.05,0,*67
1506200669.29,44302,14.13,73832.0,-0.27,-1.13,-1.05,0,*63
1506200670.56,44303,14.19,73834.5,-0.27,-1.05,-1.05,0,*65
1506200671.83,44304,14.13,73832.0,-0.27,-1.13,-1.05,0,*65
1506200673.1,44305,14.19,73838.5,-0.27,-1.05,-1.05,0,*63
1506200674.34,44306,14.19,73836.0,-0.29,-1.05,-1.05,0,*6E
1506200675.59,44307,14.19,73834.8,-0.29,-1.05,-1.05,0,*6F
1506200676.83,44308,14.19,73832.5,-0.29,-1.13,-1.13,0,*60
1506200678.07,44309,14.19,73832.3,-0.29,-1.05,-1.13,0,*66
1506200679.31,44310,14.19,73834.0,-0.29,-1.05,-1.13,0,*6E
1506200680.55,44311,14.13,73834.5,-0.29,-1.13,-1.13,0,*68
1506200681.82,44312,14.13,73828.8,-0.27,-1.05,-1.05,0,*65
1506200683.07,44313,14.13,73832.8,-0.29,-1.05,-1.05,0,*6A
1506200684.32,44314,14.19,73832.3,-0.29,-1.05,-1.05,0,*6D
1506200685.55,44315,14.13,73834.0,-0.29,-1.13,-1.13,0,*6C
1506200686.77,44316,14.13,73834.0,-0.29,-1.13,-1.17,0,*6B
1506200688.02,44317,14.13,73834.0,-0.29,-1.05,-1.05,0,*6E
1506200689.26,44318,14.19,73834.5,-0.29,-1.13,-1.13,0,*61
1506200690.5,44319,14.13,73830.0,-0.29,-1.05,-1.13,0,*67
1506200691.74,44320,14.19,73832.5,-0.29,-1.13,-1.13,0,*6A
1506200692.96,44321,14.19,73832.8,-0.29,-1.17,-1.13,0,*6F
1506200694.15,44322,14.19,73832.3,-0.29,-1.17,-1.17,0,*68
1506200695.39,44323,14.19,73834.3,-0.29,-1.13,-1.13,0,*69
1506200696.61,44324,14.19,73834.0,-0.29,-1.05,-1.17,0,*6D
1506200697.81,44325,14.19,73832.5,-0.29,-1.25,-1.17,0,*6E
1506200699.03,44326,14.19,73834.8,-0.31,-1.21,-1.21,0,*65
1506200700.25,44327,14.19,73832.0,-0.31,-1.29,-1.29,0,*64
1506200701.47,44328,14.19,73834.5,-0.31,-1.21,-1.21,0,*6B
1506200702.69,44329,14.13,73832.0,-0.31,-1.29,-1.21,0,*62
1506200703.91,44330,14.19,73832.0,-0.31,-1.21,-1.17,0,*67
1506200705.13,44331,14.19,73834.0,-0.31,-1.17,-1.17,0,*63
1506200706.35,44332,14.19,73832.0,-0.31,-1.17,-1.17,0,*60
1506200707.57,44333,14.19,73832.8,-0.31,-1.21,-1.17,0,*64
1506200708.76,44334,14.19,73834.5,-0.33,-1.25,-1.25,0,*64
1506200709.98,44335,14.19,73838.3,-0.31,-1.29,-1.21,0,*6F
1506200711.17,44336,14.13,73828.3,-0.33,-1.25,-1.25,0,*66
1506200712.36,44337,14.19,73834.3,-0.33,-1.25,-1.33,0,*60
1506200713.55,44338,14.19,73834.3,-0.33,-1.33,-1.33,0,*68
1506200714.77,44339,14.13,73830.3,-0.31,-1.29,-1.21,0,*63
1506200715.96,44340,14.13,73834.8,-0.33,-1.25,-1.25,0,*67
1506200717.16,44341,14.19,73832.0,-0.33,-1.25,-1.21,0,*62
1506200718.38,44342,14.19,73832.5,-0.31,-1.17,-1.17,0,*67
1506200719.6,44343,14.19,73836.3,-0.33,-1.21,-1.13,0,*65
1506200720.79,44344,14.19,73832.5,-0.33,-1.25,-1.25,0,*63
1506200721.99,44345,14.19,73834.5,-0.33,-1.21,-1.21,0,*62
1506200723.21,44346,14.19,73836.5,-0.33,-1.13,-1.21,0,*60
1506200724.41,44347,14.19,73834.5,-0.33,-1.21,-1.21,0,*60
1506200725.6,44348,14.13,73830.8,-0.33,-1.25,-1.21,0,*6B
1506200726.8,44349,14.19,73836.0,-0.33,-1.21,-1.21,0,*6E
1506200728.02,44350,14.19,73832.8,-0.33,-1.21,-1.13,0,*67
1506200729.22,44351,14.19,73834.8,-0.33,-1.21,-1.21,0,*67
1506200730.41,44352,14.19,73836.3,-0.33,-1.25,-1.25,0,*64
1506200731.59,44353,14.19,73834.8,-0.33,-1.25,-1.25,0,*65
1506200732.81,44354,14.19,73838.0,-0.35,-1.25,-1.21,0,*60
1506200734.08,44355,14.13,73834.8,-0.35,-1.13,-1.13,0,*65
1506200735.3,44356,14.19,73834.8,-0.35,-1.21,-1.21,0,*66
1506200736.52,44357,14.19,73838.8,-0.35,-1.21,-1.21,0,*67
1506200737.77,44358,14.13,73832.3,-0.35,-1.13,-1.21,0,*69
1506200738.99,44359,14.13,73830.5,-0.33,-1.13,-1.21,0,*6E
1506200740.23,44360,14.13,73832.0,-0.35,-1.13,-1.21,0,*62
1506200741.45,44361,14.19,73836.0,-0.35,-1.21,-1.25,0,*66
1506200742.66,44362,14.19,73836.3,-0.33,-1.13,-1.25,0,*62
1506200743.86,44363,14.19,73836.5,-0.33,-1.21,-1.21,0,*66
1506200745.08,44364,14.19,73834.3,-0.35,-1.21,-1.25,0,*63
1506200746.3,44365,14.13,73830.5,-0.35,-1.21,-1.25,0,*62
1506200747.51,44366,14.13,73834.3,-0.35,-1.25,-1.33,0,*62
1506200748.75,44367,14.19,73832.5,-0.35,-1.21,-1.13,0,*65
1506200749.97,44368,14.19,73834.0,-0.35,-1.25,-1.21,0,*6F
1506200751.16,44369,14.13,73834.3,-0.37,-1.29,-1.25,0,*64
1506200752.42,44370,14.13,73834.0,-0.35,-1.13,-1.13,0,*62
1506200753.63,44371,14.13,73834.5,-0.35,-1.25,-1.33,0,*64
1506200754.82,44372,14.13,73832.8,-0.37,-1.25,-1.25,0,*62
1506200756.04,44373,14.13,73834.8,-0.35,-1.25,-1.21,0,*65
1506200757.22,44374,14.13,73832.3,-0.37,-1.25,-1.25,0,*64
1506200758.44,44375,14.13,73832.8,-0.35,-1.21,-1.21,0,*67
1506200759.64,44376,14.13,73832.3,-0.37,-1.25,-1.21,0,*62
1506200760.82,44377,14.19,73834.8,-0.37,-1.25,-1.25,0,*67
1506200762.01,44378,14.19,73836.8,-0.37,-1.29,-1.25,0,*64
1506200763.23,44379,14.13,73832.5,-0.35,-1.25,-1.21,0,*6F
1506200764.45,44380,14.19,73834.5,-0.35,-1.21,-1.21,0,*6D
1506200765.65,44381,14.19,73834.5,-0.37,-1.29,-1.29,0,*6E
1506200766.87,44382,14.19,73834.3,-0.35,-1.21,-1.21,0,*6F
1506200768.06,44383,14.13,73832.3,-0.37,-1.29,-1.29,0,*6C
1506200769.25,44384,14.19,73832.0,-0.37,-1.25,-1.29,0,*67
1506200770.44,44385,14.19,73834.3,-0.37,-1.17,-1.29,0,*67
1506200771.63,44386,14.19,73836.3,-0.37,-1.25,-1.25,0,*69
1506200772.82,44387,14.13,73834.0,-0.37,-1.25,-1.25,0,*68
1506200774.0,44388,14.19,73834.5,-0.37,-1.25,-1.25,0,*67
1506200775.2,44389,14.13,73832.0,-0.37,-1.17,-1.29,0,*6B
1506200776.41,44390,14.13,73832.3,-0.39,-1.25,-1.29,0,*6C
1506200777.6,44391,14.19,73832.8,-0.37,-1.25,-1.25,0,*6F
1506200778.78,44392,14.13,73832.3,-0.37,-1.25,-1.25,0,*6C
1506200779.97,44393,14.19,73834.5,-0.37,-1.25,-1.29,0,*61
1506200781.16,44394,14.13,73832.5,-0.37,-1.25,-1.25,0,*6A
1506200782.35,44395,14.19,73838.5,-0.37,-1.25,-1.17,0,*6A
1506200783.53,44396,14.13,73834.0,-0.37,-1.25,-1.25,0,*68
1506200784.72,44397,14.13,73834.0,-0.37,-1.25,-1.29,0,*65
1506200785.91,44398,14.13,73832.0,-0.37,-1.25,-1.17,0,*67
1506200787.12,44399,14.13,73834.0,-0.39,-1.25,-1.25,0,*69
1506200788.33,44400,14.13,73834.5,-0.39,-1.25,-1.25,0,*6E
1506200789.54,44401,14.13,73834.0,-0.39,-1.25,-1.25,0,*6F
1506200790.76,44402,14.13,73832.5,-0.39,-1.29,-1.25,0,*60
1506200791.97,44403,14.19,73834.0,-0.43,-1.33,-1.33,0,*60
1506200793.21,44404,14.13,73832.8,-0.39,-1.35,-1.29,0,*67
1506200794.43,44405,14.13,73834.8,-0.39,-1.25,-1.29,0,*67
1506200795.64,44406,14.19,73836.0,-0.43,-1.29,-1.33,0,*6E
1506200796.86,44407,14.19,73832.8,-0.43,-1.29,-1.33,0,*6F
1506200798.07,44408,14.19,73836.0,-0.43,-1.29,-1.29,0,*6B
1506200799.29,44409,14.19,73832.3,-0.39,-1.17,-1.17,0,*67
1506200800.51,44410,14.19,73834.8,-0.39,-1.25,-1.29,0,*63
1506200801.72,44411,14.19,73834.5,-0.39,-1.25,-1.29,0,*62
1506200802.94,44412,14.13,73832.3,-0.43,-1.29,-1.21,0,*68
1506200804.16,44413,14.13,73834.5,-0.39,-1.29,-1.17,0,*61
1506200805.37,44414,14.13,73836.5,-0.39,-1.25,-1.17,0,*6A
1506200806.59,44415,14.19,73838.5,-0.43,-1.29,-1.21,0,*6F
1506200807.81,44416,14.13,73834.8,-0.39,-1.25,-1.29,0,*65
1506200809.02,44417,14.19,73834.8,-0.43,-1.21,-1.29,0,*6D
1506200810.24,44418,14.13,73832.8,-0.43,-1.29,-1.29,0,*6A
1506200811.45,44419,14.19,73834.5,-0.43,-1.29,-1.33,0,*60
1506200812.67,44420,14.13,73834.3,-0.43,-1.29,-1.21,0,*69
1506200813.89,44421,14.19,73832.3,-0.43,-1.29,-1.29,0,*60
1506200815.1,44422,14.13,73832.0,-0.39,-1.25,-1.25,0,*6E
1506200816.32,44423,14.13,73832.5,-0.43,-1.29,-1.29,0,*62
1506200817.56,44424,14.19,73836.0,-0.43,-1.33,-1.39,0,*6F
1506200818.83,44425,14.19,73834.3,-0.43,-1.39,-1.39,0,*64
1506200820.05,44426,14.19,73832.3,-0.43,-1.29,-1.33,0,*6C
1506200821.26,44427,14.19,73836.5,-0.43,-1.33,-1.33,0,*66
1506200822.47,44428,14.13,73832.5,-0.43,-1.29,-1.33,0,*62
1506200823.69,44429,14.13,73834.3,-0.43,-1.33,-1.33,0,*68
1506200824.91,44430,14.13,73834.5,-0.45,-1.33,-1.35,0,*60
1506200826.09,44431,14.19,73832.0,-0.45,-1.25,-1.33,0,*60
1506200827.31,44432,14.13,73834.8,-0.43,-1.29,-1.29,0,*62
1506200828.53,44433,14.19,73832.3,-0.43,-1.21,-1.29,0,*6B
1506200829.74,44434,14.19,73832.0,-0.43,-1.21,-1.29,0,*6C
1506200830.96,44435,14.13,73834.0,-0.43,-1.21,-1.29,0,*6D
1506200832.18,44436,14.19,73832.8,-0.43,-1.33,-1.29,0,*6D
1506200833.36,44437,14.19,73836.3,-0.45,-1.25,-1.33,0,*66
1506200834.55,44438,14.19,73834.5,-0.45,-1.33,-1.33,0,*6E
1506200835.74,44439,14.13,73832.3,-0.45,-1.25,-1.33,0,*68
1506200836.93,44440,14.19,73836.3,-0.45,-1.33,-1.25,0,*66
1506200838.17,44441,14.19,73834.3,-0.45,-1.35,-1.35,0,*60
1506200839.39,44442,14.13,73832.3,-0.45,-1.33,-1.43,0,*64
1506200840.61,44443,14.19,73836.8,-0.45,-1.33,-1.35,0,*64
1506200841.83,44444,14.13,73834.8,-0.43,-1.29,-1.29,0,*63
1506200843.04,44445,14.13,73834.3,-0.43,-1.29,-1.33,0,*69
1506200844.26,44446,14.13,73832.5,-0.43,-1.21,-1.29,0,*69
1506200845.47,44447,14.13,73832.5,-0.43,-1.29,-1.29,0,*60
1506200846.69,44448,14.19,73838.8,-0.43,-1.29,-1.29,0,*6F
1506200847.88,44449,14.19,73836.5,-0.45,-1.33,-1.33,0,*68
1506200849.12,44450,14.19,73834.8,-0.45,-1.35,-1.35,0,*60
1506200850.36,44451,14.19,73838.8,-0.45,-1.43,-1.35,0,*60
1506200851.59,44452,14.19,73834.5,-0.45,-1.33,-1.35,0,*64
1506200852.85,44453,14.19,73838.5,-0.47,-1.35,-1.35,0,*61
1506200854.11,44454,14.13,73832.5,-0.47,-1.35,-1.43,0,*67
1506200855.38,44455,14.19,73838.0,-0.47,-1.43,-1.35,0,*66
1506200856.65,44456,14.19,73836.5,-0.47,-1.43,-1.43,0,*64
1506200857.91,44457,14.19,73832.3,-0.47,-1.35,-1.43,0,*64
1506200859.15,44458,14.19,73836.3,-0.45,-1.35,-1.43,0,*69
1506200860.39,44459,14.13,73832.0,-0.45,-1.35,-1.35,0,*69
1506200861.63,44460,14.13,73832.5,-0.45,-1.35,-1.35,0,*63
1506200862.87,44461,14.13,73834.8,-0.47,-1.35,-1.33,0,*66
1506200864.13,44462,14.13,73834.3,-0.47,-1.35,-1.35,0,*63
1506200865.37,44463,14.19,73836.3,-0.45,-1.35,-1.35,0,*60
1506200866.56,44464,14.19,73834.3,-0.45,-1.33,-1.33,0,*67
1506200867.77,44465,14.19,73836.5,-0.47,-1.33,-1.33,0,*64
1506200869.02,44466,14.19,73838.5,-0.47,-1.33,-1.43,0,*60
1506200870.26,44467,14.19,73834.8,-0.47,-1.33,-1.43,0,*61
1506200871.47,44468,14.19,73838.0,-0.47,-1.33,-1.33,0,*69
1506200872.66,44469,14.13,73832.0,-0.45,-1.25,-1.33,0,*6D
1506200873.85,44470,14.19,73832.8,-0.45,-1.33,-1.33,0,*62
1506200875.06,44471,14.19,73832.8,-0.47,-1.25,-1.25,0,*61
1506200876.27,44472,14.19,73832.8,-0.47,-1.25,-1.33,0,*65
1506200877.48,44473,14.13,73832.5,-0.47,-1.33,-1.33,0,*63
1506200878.7,44474,14.13,73832.5,-0.47,-1.33,-1.33,0,*64
1506200879.91,44475,14.19,73836.3,-0.47,-1.25,-1.33,0,*62
1506200881.12,44476,14.19,73838.5,-0.47,-1.33,-1.33,0,*66
1506200882.34,44477,14.13,73834.0,-0.47,-1.33,-1.33,0,*67
1506200883.6,44478,14.19,73836.5,-0.47,-1.35,-1.35,0,*68
1506200884.84,44479,14.19,73838.0,-0.47,-1.35,-1.33,0,*6F
1506200886.07,44480,14.19,73834.3,-0.47,-1.35,-1.33,0,*69
1506200887.31,44481,14.19,73834.8,-0.45,-1.35,-1.35,0,*6C
1506200888.56,44482,14.19,73832.8,-0.49,-1.35,-1.39,0,*6F
1506200889.78,44483,14.13,73834.0,-0.49,-1.29,-1.39,0,*63
1506200890.99,44484,14.19,73834.5,-0.47,-1.33,-1.33,0,*6B
1506200892.18,44485,14.19,73832.8,-0.49,-1.25,-1.33,0,*63
1506200893.39,44486,14.19,73832.0,-0.47,-1.25,-1.33,0,*6E
1506200894.61,44487,14.19,73838.0,-0.47,-1.33,-1.33,0,*68
1506200895.82,44488,14.13,73834.5,-0.47,-1.25,-1.33,0,*60
1506200897.03,44489,14.19,73834.3,-0.49,-1.35,-1.29,0,*65
1506200898.28,44490,14.13,73834.0,-0.49,-1.35,-1.35,0,*60
1506200899.52,44491,14.13,73834.3,-0.49,-1.35,-1.35,0,*61
1506200900.74,44492,14.13,73834.8,-0.49,-1.29,-1.35,0,*6F
1506200901.94,44493,14.19,73836.5,-0.49,-1.29,-1.29,0,*63
1506200903.19,44494,14.13,73832.5,-0.49,-1.35,-1.35,0,*64
1506200904.43,44495,14.13,73834.0,-0.49,-1.35,-1.35,0,*65
1506200905.67,44496,14.19,73838.8,-0.49,-1.35,-1.35,0,*66
1506200906.9,44497,14.13,73834.0,-0.49,-1.29,-1.39,0,*66
1506200908.11,44498,14.13,73834.8,-0.49,-1.35,-1.29,0,*65
1506200909.36,44499,14.19,73838.3,-0.49,-1.35,-1.35,0,*69